Regional Weather Roundup
Issued by NWS

Home | Current Version | Previous Version | Text Only | Print | Product List | Glossary Off
Versions: 1 2 3 4 5 6 7 8 9 10 11 12 13 14 15 16 17 18 19 20 21 22 23 24 25 26 27 28 29 30 31 32 33 34 35 36 37 38 39 40 41 42 43 44 45 46 47 48 49 50

000
ASUS43 KLOT 060312
RWRIL

ILLINOIS REGIONAL WEATHER ROUNDUP
NATIONAL WEATHER SERVICE CHICAGO/ROMEOVILLE IL
1000 PM CDT TUE MAY 05 2015

NOTE: "FAIR" INDICATES FEW OR NO CLOUDS BELOW 12,000 FEET WITH NO
SIGNIFICANT WEATHER AND/OR OBSTRUCTIONS TO VISIBILITY.

* THESE STATIONS ARE NOT UNDER NWS QUALITY CONTROL. THEY ALSO MAY NOT
  REPORT WEATHER SUCH AS PRECIPITATION OR FOG.

ILZ001-002-007-009-015-016-024-060400-
NORTHWEST ILLINOIS

CITY           SKY/WX    TMP DP  RH WIND       PRES   REMARKS
MOLINE         CLOUDY    62  58  86 E15       30.15R FOG
STERLING*      CLOUDY    55  52  88 E15       30.19R
SAVANNA*       CLOUDY    56  53  89 E12       30.19S
$$

ILZ003-004-008-010-011-017-018-060400-
NORTH CENTRAL ILLINOIS

CITY           SKY/WX    TMP DP  RH WIND       PRES   REMARKS
ROCKFORD       CLOUDY    52  48  86 E8        30.24R
FREEPORT*      CLOUDY    51  49  94 E8        30.22S
ROCHELLE*      CLOUDY    52  51  95 E8        30.21S FOG
DE KALB*       CLOUDY    50  48  95 E9        30.22R FOG
PERU*          CLOUDY    57  53  88 E12       30.19R FOG
$$

ILZ005-006-012>014-019>023-060400-
NORTHEAST ILLINOIS

CITY           SKY/WX    TMP DP  RH WIND       PRES   REMARKS
CHICAGO-OHARE  CLOUDY    48  47  96 N9        30.22R FOG
CHICAGO-MIDWAY MOCLDY    53  48  83 NE9       30.21S
AURORA         CLOUDY    53  50  89 NE8       30.21R FOG
LANSING*       CLOUDY    49  46  92 N6        30.21S FOG
JOLIET*        CLOUDY    56  55  97 NE6       30.19S FOG
WAUKEGAN       CLOUDY    45  44  97 NE7       30.24R FOG
DUPAGE AIRPORT FOG       51  50  96 NE8       30.21S VSB 1/4
KANKAKEE*      CLOUDY    57  55  94 NE7       30.19R FOG
WHEELING       FOG       47  46  97 NE7       30.25R VSB 1/2
MORRIS*        CLOUDY    55  54  94 NE3       30.17R FOG
ROMEOVILLE*    CLOUDY    54  53  99 E7        30.21R FOG
NORTHERLY ISL    N/A     46  45  96 MISG        N/A
$$

LMZ740>746-060400-
SOUTHERN LAKE MICHIGAN

STATION/POSITION SKY/WX   TEMP    WIND        PRES    VSBY  WAVE
                          AIR SEA DIR/SP/G                  HT/PER
                          (F)     (DEG/KT/KT) (MB)    (MI)  (FT/S)
HARRISON CRIB              45     360/ 11/ 12   N/A
BURNHAM HARBOR             47     360/ 12       N/A
CALUMET HARBOR             46     340/  6/ 11   N/A
BURNS HARBOR               50     320/  2/  4 1023.0R
MICHIGAN CITY              57      50/  4/  5   N/A
MICHIGAN CITY 6N           52 50   70/  6/  6   N/A           1/ 3
ST. JOSEPH                 53 50  100/  8/ 10   N/A           1/ 3
$$

ILZ025>027-034>036-040-047-049-050-058-095>099-060400-
WEST-CENTRAL ILLINOIS

CITY           SKY/WX    TMP DP  RH WIND       PRES   REMARKS
QUINCY         PTCLDY    70  57  63 SE6       30.11R
GALESBURG*     CLEAR     66  64  91 E9        30.14R FOG
MACOMB*        MOCLDY    67  64  89 NE5       30.15R
JACKSONVILLE*  MOCLDY    76  56  48 S6        30.13S
PITTSFIELD*    MOCLDY    73  57  58 SE5       30.13S
$$

ILZ028>032-037-038-041>044-048-051>054-059>061-060400-
CENTRAL ILLINOIS

CITY           SKY/WX    TMP DP  RH WIND       PRES   REMARKS
PONTIAC        MOCLDY    60  59  97 NE13      30.18S FOG
BLOOMINGTON    CLEAR     64  63  97 E8        30.18R FOG
DECATUR        CLOUDY    74  55  51 SW3       30.15R
PEORIA         PTCLDY    69  63  81 E14       30.15R HAZE
LACON*         PTCLDY    60  57  88 NE6       30.17R FOG
LINCOLN*       PTCLDY    69  64  85 CALM      30.13R
SPRINGFIELD    MOCLDY    73  54  51 S8        30.14R
TAYLORVILLE    CLOUDY    70  54  56 S6        30.15R
$$

ILZ033-039-045-046-055>057-062-063-060400-
EAST-CENTRAL ILLINOIS

CITY           SKY/WX    TMP DP  RH WIND       PRES   REMARKS
CHAMPAIGN      CLEAR     68  62  81 NE6       30.16R
DANVILLE*      PTCLDY    65  61  85 E6        30.14S
RANTOUL*       PTCLDY    68  63  83 NE8       30.17R
MATTOON        MOCLDY    71  57  61 S5        30.15R
PARIS*         CLEAR     65  55  68 S5        30.17R
$$

ILZ079-100>102-060400-
SOUTHWEST ILLINOIS

CITY           SKY/WX    TMP DP  RH WIND       PRES   REMARKS
ALTON          PTCLDY    72  59  64 S7        30.14S
BELLEVILLE     PTCLDY    69  60  71 S1        30.14R
CAHOKIA*       PTCLDY    71  59  65 SE6       30.13R
SPARTA*        PTCLDY    65  60  82 CALM      30.16R
$$

ILZ064>066-069>071-074>076-080>082-084>086-088>090-092>094-060400-
SOUTH-CENTRAL ILLINOIS

CITY           SKY/WX    TMP DP  RH WIND       PRES   REMARKS
CARBONDALE     CLOUDY    68  60  75 CALM      30.16R
CAIRO*         CLEAR     66  55  69 CALM      30.16R
EFFINGHAM*     PTCLDY    69  53  56 SE3       30.18R
MARION         PTCLDY    66  61  82 CALM      30.17R
MT. VERNON     MOCLDY   N/A N/A N/A CALM      30.17S
CENTRALIA*     MOCLDY    65  58  76 CALM      30.17R
SALEM*         PTCLDY    72  58  61 CALM      30.17R
METROPOLIS*    CLEAR     66  58  75 CALM      30.16S
$$

ILZ067-068-072-073-078-083-087-091-060400-
SOUTHEAST ILLINOIS

CITY           SKY/WX    TMP DP  RH WIND       PRES   REMARKS
LAWRENCEVILLE  PTCLDY    68  55  63 S6        30.18R
FLORA*         PTCLDY    70  56  62 SW6       30.18R
FAIRFIELD*     PTCLDY    65  59  79 CALM      30.17R
HARRISBURG*    PTCLDY    67  59  76 CALM      30.18R
ROBINSON*      PTCLDY    70  53  54 S6        30.18R
CARMI*         MOCLDY    66  52  60 SE5       30.17R
$$

ABBREVIATIONS USED IN REMARKS
   TC - TEMPERATURE IN CELSIUS
  WCI - WIND CHILL INDEX
   HX - HEAT INDEX
  VSB - VISIBILITY
$$




USA.gov is the U.S. government's official web portal to all federal, state and local government web resources and services.